Weather History for New Bedford, MA

Change the Weather History Date:

Friday, October 25, 2013

  Actual Average Record
Temperature  
Mean Temperature 6 °C -  
Max Temperature 11 °C 16 °C 23 °C (1963)
Min Temperature 0 °C 7 °C -4 °C (2003)
Degree Days  
Heating Degree Days 23    
Moisture  
Dew Point -2 °C    
Average Humidity 59    
Maximum Humidity 82    
Minimum Humidity 41    
Precipitation  
Precipitation 0.00 mm - - ()
Sea Level Pressure  
Sea Level Pressure 1017 hPa    
Wind  
Wind Speed 11 km/h (WNW)    
Max Wind Speed 21 km/h    
Max Gust Speed 34 km/h    
Visibility 16 kilometers    
Events      
Averages and records for this station are not official NWS values.
T = Trace of Precipitation, MM = Missing Value Source: NWS Daily Summary

Daily Weather History Graph

Daily Weather History Graph

Search for Another Location

Airport:

Trip Planner

Search our weather history database for the weather conditions in past years. The results will help you decide how hot, cold, wet, or windy it might be!

Date:

Astronomy

Oct. 25, 2013 Rise Set
Actual Time 7:07 AM EDT 5:47 PM EDT
Civil Twilight 6:39 AM EDT 6:15 PM EDT
Nautical Twilight 6:06 AM EDT 6:48 PM EDT
Astronomical Twilight 5:34 AM EDT 7:20 PM EDT
Moon 11:03 PM EDT (10/25) 12:47 PM EDT (10/25)
Length of Visible Light 11h 36m
Length of Day
10h 39m
Waning Gibbous, 62% of the Moon is Illuminated
Oct 25
Waning Gibbous
Oct 26
Last Quarter
Nov 3
New
Nov 10
First Quarter
Nov 17
Full

Hourly Weather History & Observations

Time (EDT) Temp. Windchill Dew Point Humidity Pressure Visibility Wind Dir Wind Speed Gust Speed Precip Events Conditions
12:53 AM 6.7 °C 3.9 °C -1.7 °C 55% 1013.0 hPa 16.1 km West 14.8 km/h / 4.1 m/s - N/A   Clear
1:53 AM 5.6 °C 2.5 °C -1.7 °C 60% 1013.3 hPa 16.1 km West 14.8 km/h / 4.1 m/s - N/A   Clear
2:53 AM 5.0 °C 2.1 °C -2.2 °C 60% 1013.4 hPa 16.1 km West 13.0 km/h / 3.6 m/s - N/A   Clear
3:53 AM 4.4 °C 1.7 °C -2.2 °C 63% 1013.6 hPa 16.1 km WNW 11.1 km/h / 3.1 m/s - N/A   Clear
4:53 AM 2.8 °C 1.4 °C -2.2 °C 70% 1014.3 hPa 16.1 km West 5.6 km/h / 1.5 m/s - N/A   Clear
5:53 AM 0.6 °C -1.1 °C -2.2 °C 82% 1015.1 hPa 16.1 km West 5.6 km/h / 1.5 m/s - N/A   Clear
6:53 AM 2.8 °C 0.2 °C -1.7 °C 73% 1015.7 hPa 16.1 km WNW 9.3 km/h / 2.6 m/s - N/A   Clear
7:53 AM 3.9 °C 2.0 °C -0.6 °C 73% 1016.6 hPa 16.1 km West 7.4 km/h / 2.1 m/s - N/A   Clear
8:53 AM 6.7 °C 3.6 °C 0.6 °C 65% 1017.0 hPa 16.1 km West 16.7 km/h / 4.6 m/s - N/A   Clear
9:53 AM 8.3 °C - 0.6 °C 59% 1017.2 hPa 16.1 km West 14.8 km/h / 4.1 m/s - N/A   Clear
10:53 AM 9.4 °C - 0.0 °C 52% 1016.8 hPa 16.1 km West 13.0 km/h / 3.6 m/s - N/A   Partly Cloudy
11:53 AM 10.6 °C - -1.1 °C 44% 1016.4 hPa 16.1 km WNW 13.0 km/h / 3.6 m/s - N/A   Scattered Clouds
12:53 PM 10.0 °C - -2.2 °C 43% 1015.9 hPa 16.1 km WNW 18.5 km/h / 5.1 m/s 29.6 km/h / 8.2 m/s N/A   Scattered Clouds
1:53 PM 10.6 °C - -1.7 °C 43% 1015.9 hPa 16.1 km West 20.4 km/h / 5.7 m/s 33.3 km/h / 9.3 m/s N/A   Scattered Clouds
2:53 PM 9.4 °C - -2.8 °C 43% 1016.4 hPa 16.1 km WNW 16.7 km/h / 4.6 m/s 33.3 km/h / 9.3 m/s N/A   Mostly Cloudy
3:53 PM 10.0 °C - -2.8 °C 41% 1016.7 hPa 16.1 km WNW 14.8 km/h / 4.1 m/s - N/A   Clear
4:53 PM 8.9 °C - -3.3 °C 42% 1017.1 hPa 16.1 km Variable 5.6 km/h / 1.5 m/s - N/A   Clear
5:53 PM 6.7 °C 5.3 °C -2.8 °C 51% 1017.7 hPa 16.1 km WNW 7.4 km/h / 2.1 m/s - N/A   Clear
6:53 PM 5.0 °C 3.9 °C -2.2 °C 60% 1018.8 hPa 16.1 km West 5.6 km/h / 1.5 m/s - N/A   Clear
7:53 PM 4.4 °C 2.1 °C -2.8 °C 60% 1019.6 hPa 16.1 km West 9.3 km/h / 2.6 m/s - N/A   Clear
8:53 PM 5.0 °C 2.8 °C -2.2 °C 60% 1020.3 hPa 16.1 km WNW 9.3 km/h / 2.6 m/s - N/A   Clear
9:53 PM 3.9 °C 2.6 °C -2.8 °C 62% 1021.2 hPa 16.1 km WNW 5.6 km/h / 1.5 m/s - N/A   Clear
10:53 PM 2.2 °C - -2.2 °C 73% 1021.6 hPa 16.1 km Calm Calm - N/A   Clear
11:53 PM 0.0 °C - -3.3 °C 79% 1021.8 hPa 16.1 km Calm Calm - N/A   Clear